Hourly Weather Las Palmas de Gran Canaria

Today, 9 July, Thursday

Time Temperature Precipitation Wind Pressure Humidity
00:00 +28°C° 0 mm 5 mps 756 mmHg 38%
01:00 +28°C° 0 mm 6 mps 755 mmHg 39%
02:00 +28°C° 0 mm 6 mps 755 mmHg 41%
03:00 +27°C° 0 mm 6 mps 755 mmHg 45%
04:00 +26°C° 0 mm 6 mps 755 mmHg 49%
05:00 +26°C° 0 mm 6 mps 755 mmHg 54%
06:00 +27°C° 0 mm 6 mps 756 mmHg 49%
07:00 +28°C° 0 mm 6 mps 756 mmHg 44%
08:00 +30°C° 0 mm 6 mps 756 mmHg 39%
09:00 +30°C° 0 mm 6 mps 756 mmHg 39%
10:00 +32°C° 0 mm 6 mps 757 mmHg 38%
11:00 +32°C° 0 mm 6 mps 757 mmHg 37%
12:00 +32°C° 0 mm 7 mps 757 mmHg 39%
13:00 +32°C° 0 mm 7 mps 756 mmHg 40%
14:00 +32°C° 0 mm 7 mps 756 mmHg 42%
15:00 +30°C° 0 mm 7 mps 756 mmHg 45%
16:00 +29°C° 0 mm 7 mps 756 mmHg 48%
17:00 +28°C° 0 mm 7 mps 755 mmHg 51%
18:00 +27°C° 0 mm 7 mps 756 mmHg 59%
19:00 +24°C° 0 mm 8 mps 756 mmHg 66%
20:00 +23°C° 0 mm 8 mps 756 mmHg 74%
21:00 +23°C° 0 mm 8 mps 756 mmHg 77%
22:00 +22°C° 0 mm 8 mps 756 mmHg 79%
23:00 +22°C° 0 mm 8 mps 756 mmHg 82%

Tomorrow, 10 July, Friday

Time Temperature Precipitation Wind Pressure Humidity
00:00 +22°C° 0 mm 8 mps 755 mmHg 83%
01:00 +21°C° 0 mm 8 mps 755 mmHg 84%
02:00 +21°C° 0 mm 8 mps 754 mmHg 85%
03:00 +21°C° 0 mm 8 mps 754 mmHg 85%
04:00 +21°C° 0 mm 8 mps 754 mmHg 85%
05:00 +21°C° 0 mm 8 mps 754 mmHg 85%
06:00 +22°C° 0 mm 8 mps 754 mmHg 81%
07:00 +23°C° 0 mm 8 mps 754 mmHg 78%
08:00 +24°C° 0 mm 8 mps 754 mmHg 74%
09:00 +26°C° 0 mm 7 mps 754 mmHg 68%
10:00 +27°C° 0 mm 7 mps 754 mmHg 62%
11:00 +28°C° 0 mm 7 mps 754 mmHg 56%
12:00 +28°C° 0 mm 7 mps 754 mmHg 56%
13:00 +28°C° 0 mm 7 mps 754 mmHg 56%
14:00 +28°C° 0 mm 7 mps 753 mmHg 55%
15:00 +28°C° 0 mm 7 mps 753 mmHg 58%
16:00 +27°C° 0 mm 8 mps 753 mmHg 61%
17:00 +27°C° 0 mm 8 mps 752 mmHg 64%
18:00 +26°C° 0 mm 8 mps 753 mmHg 72%
19:00 +23°C° 0 mm 8 mps 753 mmHg 80%
20:00 +22°C° 0 mm 8 mps 753 mmHg 87%
21:00 +22°C° 0 mm 8 mps 753 mmHg 87%
22:00 +22°C° 0 mm 8 mps 753 mmHg 87%
23:00 +22°C° 0 mm 8 mps 754 mmHg 87%

Day after tomorrow, 11 July, Saturday

Time Temperature Precipitation Wind Pressure Humidity
00:00 +22°C° 0 mm 8 mps 753 mmHg 87%
01:00 +22°C° 0 mm 8 mps 753 mmHg 88%
02:00 +22°C° 0 mm 8 mps 752 mmHg 88%
03:00 +21°C° 0 mm 8 mps 752 mmHg 88%
04:00 +21°C° 0 mm 8 mps 752 mmHg 88%
05:00 +21°C° 0 mm 8 mps 753 mmHg 89%
06:00 +22°C° 0 mm 7 mps 753 mmHg 83%
07:00 +23°C° 0 mm 7 mps 753 mmHg 77%
08:00 +24°C° 0 mm 7 mps 753 mmHg 72%
09:00 +26°C° 0 mm 7 mps 753 mmHg 67%
10:00 +27°C° 0 mm 7 mps 753 mmHg 61%
11:00 +28°C° 0 mm 7 mps 754 mmHg 56%
12:00 +28°C° 0 mm 7 mps 753 mmHg 56%
13:00 +28°C° 0 mm 7 mps 753 mmHg 55%
14:00 +28°C° 0 mm 7 mps 753 mmHg 55%
15:00 +28°C° 0 mm 7 mps 753 mmHg 58%
16:00 +27°C° 0 mm 7 mps 753 mmHg 61%
17:00 +27°C° 0 mm 7 mps 753 mmHg 64%
18:00 +24°C° 0 mm 7 mps 753 mmHg 70%
19:00 +23°C° 0 mm 6 mps 753 mmHg 76%
20:00 +22°C° 0 mm 6 mps 753 mmHg 82%
21:00 +22°C° 0 mm 6 mps 754 mmHg 82%
22:00 +22°C° 0 mm 6 mps 754 mmHg 83%
23:00 +22°C° 0 mm 5 mps 754 mmHg 83%

12 July, Sunday

Time Temperature Precipitation Wind Pressure Humidity
00:00 +22°C° 0 mm 5 mps 754 mmHg 83%
01:00 +21°C° 0 mm 5 mps 753 mmHg 83%
02:00 +21°C° 0 mm 5 mps 753 mmHg 83%
03:00 +21°C° 0 mm 5 mps 753 mmHg 83%
04:00 +21°C° 0 mm 5 mps 753 mmHg 84%
05:00 +21°C° 0 mm 6 mps 753 mmHg 84%
06:00 +22°C° 0 mm 6 mps 754 mmHg 77%
07:00 +24°C° 0 mm 6 mps 754 mmHg 69%
08:00 +26°C° 0 mm 6 mps 754 mmHg 62%
09:00 +27°C° 0 mm 6 mps 755 mmHg 57%
10:00 +28°C° 0 mm 5 mps 755 mmHg 52%
11:00 +29°C° 0 mm 5 mps 755 mmHg 46%
12:00 +29°C° 0 mm 5 mps 755 mmHg 48%
13:00 +29°C° 0 mm 5 mps 755 mmHg 50%
14:00 +29°C° 0 mm 5 mps 755 mmHg 53%
15:00 +29°C° 0 mm 5 mps 755 mmHg 55%
16:00 +28°C° 0 mm 5 mps 755 mmHg 58%
17:00 +27°C° 0 mm 5 mps 754 mmHg 61%
18:00 +26°C° 0 mm 5 mps 755 mmHg 67%
19:00 +24°C° 0 mm 6 mps 755 mmHg 73%
20:00 +23°C° 0 mm 6 mps 756 mmHg 78%
21:00 +22°C° 0 mm 6 mps 756 mmHg 79%
22:00 +22°C° 0 mm 6 mps 756 mmHg 79%
23:00 +22°C° 0 mm 6 mps 756 mmHg 79%

13 July, Monday

Time Temperature Precipitation Wind Pressure Humidity
00:00 +22°C° 0 mm 6 mps 756 mmHg 80%
01:00 +21°C° 0 mm 6 mps 755 mmHg 80%
02:00 +21°C° 0 mm 6 mps 755 mmHg 81%
03:00 +21°C° 0 mm 6 mps 755 mmHg 78%
04:00 +21°C° 0 mm 6 mps 755 mmHg 76%
05:00 +21°C° 0 mm 6 mps 755 mmHg 74%
06:00 +23°C° 0 mm 6 mps 756 mmHg 68%
07:00 +24°C° 0 mm 6 mps 756 mmHg 63%
08:00 +26°C° 0 mm 6 mps 756 mmHg 57%
09:00 +27°C° 0 mm 6 mps 756 mmHg 54%
10:00 +28°C° 0 mm 6 mps 756 mmHg 50%
11:00 +29°C° 0 mm 6 mps 756 mmHg 46%
12:00 +29°C° 0 mm 7 mps 756 mmHg 49%
13:00 +29°C° 0 mm 7 mps 756 mmHg 52%
14:00 +29°C° 0 mm 7 mps 755 mmHg 55%
15:00 +28°C° 0 mm 7 mps 755 mmHg 57%
16:00 +27°C° 0 mm 7 mps 755 mmHg 59%
17:00 +27°C° 0 mm 8 mps 755 mmHg 62%
18:00 +24°C° 0 mm 8 mps 755 mmHg 69%
19:00 +23°C° 0 mm 8 mps 755 mmHg 76%
20:00 +22°C° 0 mm 8 mps 756 mmHg 83%
21:00 +21°C° 0 mm 8 mps 756 mmHg 83%
22:00 +21°C° 0 mm 8 mps 756 mmHg 84%
23:00 +21°C° 0 mm 8 mps 756 mmHg 85%

14 July, Tuesday

Time Temperature Precipitation Wind Pressure Humidity
00:00 +21°C° 0 mm 8 mps 755 mmHg 86%
01:00 +21°C° 0 mm 8 mps 755 mmHg 87%
02:00 +21°C° 0 mm 8 mps 754 mmHg 88%
03:00 +21°C° 0 mm 8 mps 754 mmHg 89%
04:00 +20°C° 0 mm 8 mps 754 mmHg 89%
05:00 +20°C° 0 mm 8 mps 754 mmHg 90%
06:00 +21°C° 0 mm 8 mps 754 mmHg 85%
07:00 +22°C° 0 mm 8 mps 755 mmHg 81%
08:00 +23°C° 0 mm 8 mps 755 mmHg 76%
09:00 +24°C° 0 mm 8 mps 755 mmHg 70%
10:00 +27°C° 0 mm 8 mps 755 mmHg 63%
11:00 +28°C° 0 mm 8 mps 754 mmHg 57%
12:00 +28°C° 0 mm 8 mps 754 mmHg 57%
13:00 +28°C° 0 mm 8 mps 754 mmHg 58%
14:00 +28°C° 0 mm 8 mps 753 mmHg 58%
15:00 +28°C° 0 mm 9 mps 753 mmHg 61%
16:00 +27°C° 0 mm 9 mps 753 mmHg 64%
17:00 +26°C° 0 mm 9 mps 752 mmHg 67%
18:00 +24°C° 0 mm 9 mps 753 mmHg 75%
19:00 +23°C° 0 mm 9 mps 753 mmHg 82%
20:00 +22°C° 0 mm 9 mps 753 mmHg 90%
21:00 +22°C° 0 mm 9 mps 753 mmHg 90%
22:00 +22°C° 0 mm 8 mps 753 mmHg 90%
23:00 +22°C° 0 mm 8 mps 753 mmHg 90%
Show more